[[{"header":{"parameterUnit":"m.s-1","parameterCategory":1,"la1":30.2991,"la2":30.254,"lo1":-89.0895,"lo2":-89.0444,"dy":0.0017,"dx":0.0017,"nx":28,"ny":28,"refTime":"2024-06-07T03:00:00:Z","depth":0,"parameterNumber":2,"parameterNumberName":"U-component_of_WINDS"},"data":[0,0,0,0,0,0,0,0,0,0,0,0,0,0,0,0,0,0,0,0,0,0,0,0,0,0,0,0,0,0,0,0,0,0,0,0,0,0,0,0,0,0,0,0,0,0,0,0,0,0,0,0,0,0,0,0,0,0,-0.3221,-0.3221,0,-0.3247,-0.3247,-0.3248,-0.3274,-0.3275,-0.3275,-0.3276,-0.3301,-0.3301,-0.3302,0,0,0,0,0,0,0,0,0,0,0,0,0,-0.3191,-0.3191,-0.3221,-0.3221,-0.3221,-0.3247,-0.3247,-0.3248,-0.3274,-0.3275,-0.3275,-0.3276,-0.3301,-0.3301,-0.3302,0,0,0,0,0,0,0,0,0,0,0,0,0,-0.3209,-0.3191,-0.3221,-0.3238,-0.324,-0.3247,-0.3247,-0.3248,-0.3274,-0.3275,-0.3275,-0.3276,-0.3301,-0.3301,-0.3302,-0.3294,0,0,-0.3303,-0.3304,0,0,0,0,0,0,0,0,-0.3208,-0.321,-0.3235,-0.3237,-0.3239,-0.3258,-0.3246,-0.3263,-0.3274,-0.3261,-0.3276,-0.3276,-0.3286,-0.3288,-0.3292,-0.3295,-0.3296,-0.3303,-0.3304,-0.3304,-0.3304,0,0,0,0,0,0,0,-0.3207,-0.3209,-0.3231,-0.3235,-0.3237,-0.3243,-0.3247,-0.325,-0.327,-0.3262,-0.3264,-0.3267,-0.3287,-0.3291,-0.3292,-0.3297,-0.3303,-0.3304,-0.3304,-0.3304,-0.3294,-0.3293,0,0,0,0,0,0,-0.3203,-0.3208,-0.323,-0.3232,-0.3224,-0.3243,-0.3247,-0.3251,-0.327,-0.3274,-0.3267,-0.3268,-0.329,-0.3292,-0.3293,-0.3285,-0.3304,-0.3304,-0.3305,-0.3294,-0.3294,-0.3293,0,0,0,0,0,0,-0.3202,-0.3205,-0.3229,-0.322,-0.3224,-0.3243,-0.3248,-0.3251,-0.3255,-0.3274,-0.3277,-0.3267,-0.329,-0.3293,-0.3294,-0.3286,-0.3305,-0.3305,-0.3295,-0.3294,-0.3293,-0.3268,0,0,0,0,0,0,-0.3201,-0.3204,-0.3202,-0.322,-0.3224,-0.3229,-0.3247,-0.3252,-0.3256,-0.3259,-0.3275,-0.3278,-0.3291,-0.3293,-0.3294,-0.3287,-0.3306,-0.3296,-0.3295,-0.3294,-0.3269,-0.3266,-0.3264,0,0,0,0,0,-0.32,-0.3194,-0.3202,-0.3205,-0.3222,-0.3229,-0.3231,-0.3247,-0.3256,-0.3253,-0.3265,-0.3277,-0.3287,-0.3292,-0.3294,-0.3287,-0.3296,-0.3295,-0.3294,-0.3271,-0.3267,-0.3264,0,0,0,0,0,0,-0.3175,-0.3197,-0.3206,-0.3206,-0.3215,-0.3233,-0.3231,-0.3243,-0.325,-0.3251,-0.327,-0.3273,-0.3272,-0.328,-0.3286,-0.328,-0.3293,-0.3292,-0.3275,-0.3272,-0.3269,-0.3267,-0.3306,0,0,0,0,0,-0.3169,-0.3173,-0.3192,-0.319,-0.3194,-0.3212,-0.3215,-0.3226,-0.3237,-0.3241,-0.3253,-0.3262,-0.3267,-0.327,-0.3275,-0.3271,-0.3274,-0.3267,-0.3264,-0.3261,-0.326,-0.3257,-0.3254,-0.3289,-0.3289,-0.3289,0,0,-0.3157,-0.317,-0.3171,-0.3185,-0.3194,-0.3197,-0.3215,-0.3218,-0.322,-0.3241,-0.3243,-0.3251,-0.3263,-0.3261,-0.326,-0.3267,-0.3251,-0.326,-0.3257,-0.3258,-0.3255,-0.3252,-0.3249,-0.3288,-0.3288,-0.3288,0,0,-0.3138,-0.3148,-0.3147,-0.3155,-0.3168,-0.3179,-0.3179,-0.3195,-0.3202,-0.3204,-0.3219,-0.3222,-0.323,-0.3238,-0.3242,-0.3224,-0.3235,-0.3225,-0.3209,-0.3206,-0.3203,-0.3201,-0.3194,-0.3191,-0.3224,-0.3224,-0.3224,0,-0.3121,-0.3127,-0.3144,-0.3146,-0.3151,-0.317,-0.3169,-0.3176,-0.319,-0.3192,-0.32,-0.321,-0.3219,-0.3219,-0.3214,-0.3217,-0.3217,-0.3223,-0.3202,-0.32,-0.3198,-0.3191,-0.3189,-0.3222,-0.3222,-0.3223,-0.3223,0,-0.3106,-0.311,-0.3107,-0.312,-0.3125,-0.3125,-0.3141,-0.3143,-0.3154,-0.3164,-0.3165,-0.3176,-0.3184,-0.3185,-0.3195,-0.3185,-0.3189,-0.3199,-0.3213,-0.3193,-0.3187,-0.3185,-0.322,-0.3221,-0.3221,-0.3222,0,0,-0.3072,-0.3094,-0.3092,-0.3098,-0.3113,-0.3116,-0.3116,-0.3124,-0.3125,-0.3134,-0.3134,-0.314,-0.3149,-0.3155,-0.3166,-0.3163,-0.3146,-0.3174,-0.3174,-0.3167,-0.3135,-0.3127,-0.3123,-0.3154,-0.3154,-0.3153,-0.3134,0,-0.3054,-0.3056,-0.3071,-0.3069,-0.3072,-0.3089,-0.3089,-0.3098,-0.3107,-0.3111,-0.3121,-0.3124,-0.3137,-0.314,-0.3138,-0.3149,-0.314,-0.315,-0.3153,-0.3153,-0.315,-0.312,-0.3112,-0.3093,-0.3131,-0.3131,-0.3131,0,-0.3034,-0.3042,-0.3039,-0.3053,-0.3055,-0.3055,-0.3063,-0.3066,-0.3076,-0.3083,-0.3088,-0.31,-0.31,-0.3113,-0.3113,-0.312,-0.3121,-0.3127,-0.3126,-0.3127,-0.3141,-0.3119,-0.3087,-0.3084,-0.3127,-0.3127,-0.3128,0,-0.3008,-0.3018,-0.3017,-0.3022,-0.3038,-0.3038,-0.3044,-0.3055,-0.3058,-0.3065,-0.3067,-0.3073,-0.3076,-0.308,-0.3094,-0.3102,-0.3092,-0.3106,-0.3096,-0.3096,-0.3093,-0.3093,-0.306,-0.3095,-0.3095,-0.3095,-0.3095,0,-0.2987,-0.2985,-0.3006,-0.3006,-0.3003,-0.3019,-0.3016,-0.3025,-0.3034,-0.3034,-0.305,-0.3051,-0.3068,-0.307,-0.3081,-0.3078,-0.308,-0.3085,-0.3087,-0.3083,-0.3082,-0.3085,-0.3086,-0.3095,-0.3095,-0.3095,-0.3095,0,-0.2958,-0.2972,-0.2973,-0.2988,-0.2992,-0.2989,-0.3002,-0.3002,-0.3012,-0.3013,-0.3014,-0.3029,-0.3032,-0.3046,-0.3052,-0.3059,-0.3053,-0.3059,-0.305,-0.3052,-0.3041,-0.3042,-0.3008,-0.3004,-0.3042,-0.3042,-0.3042,0,-0.2944,-0.2942,-0.2957,-0.2959,-0.2965,-0.2968,-0.2971,-0.2987,-0.299,-0.3,-0.2998,-0.3003,-0.3007,-0.3011,-0.3022,-0.3027,-0.3033,-0.302,-0.3033,-0.3029,-0.3031,-0.3031,-0.3031,-0.3017,-0.3017,-0.3017,-0.3016,0,-0.2916,-0.2923,-0.2927,-0.2933,-0.2937,-0.2943,-0.2949,-0.295,-0.2967,-0.2969,-0.2972,-0.2976,-0.2982,-0.2986,-0.2992,-0.2998,-0.301,-0.3012,-0.301,-0.3006,-0.3,-0.3002,-0.3042,-0.3013,-0.3013,-0.3013,-0.3014,-0.3014,-0.2893,-0.2892,-0.2902,-0.2907,-0.2913,-0.2919,-0.2919,-0.2928,-0.2932,-0.2938,-0.2947,-0.2949,-0.2958,-0.2967,-0.2972,-0.2974,-0.298,-0.2978,-0.2977,-0.2976,-0.2973,-0.3,-0.2975,-0.2975,-0.2975,-0.2975,-0.2975,0,-0.2866,-0.2873,-0.2876,-0.2885,-0.2888,-0.2898,-0.2906,-0.2907,-0.2909,-0.2916,-0.292,-0.2923,-0.2927,-0.2938,-0.2942,-0.2941,-0.2946,-0.2942,-0.2942,-0.2943,-0.2968,-0.2968,-0.2937,-0.2937,-0.2937,-0.2937,-0.2937,-0.2937,-0.2852,-0.2851,-0.2858,-0.286,-0.2867,-0.2869,-0.2872,-0.2877,-0.2883,-0.2886,-0.2889,-0.2896,-0.2904,-0.2909,-0.2912,-0.2916,-0.2916,-0.291,-0.2914,-0.2937,-0.2941,-0.2944,-0.2945,-0.291,-0.291,-0.2889,-0.2889,-0.2889]},{"header":{"parameterUnit":"m.s-1","parameterCategory":1,"la1":30.2991,"la2":30.254,"lo1":-89.0895,"lo2":-89.0444,"dy":0.0017,"dx":0.0017,"nx":28,"ny":28,"refTime":"2024-06-07T03:00:00:Z","depth":0,"parameterNumber":3,"parameterNumberName":"V-component_of_WINDS"},"data":[0,0,0,0,0,0,0,0,0,0,0,0,0,0,0,0,0,0,0,0,0,0,0,0,0,0,0,0,0,0,0,0,0,0,0,0,0,0,0,0,0,0,0,0,0,0,0,0,0,0,0,0,0,0,0,0,0,0,-2.563,-2.5631,0,-2.5721,-2.5722,-2.5723,-2.5722,-2.5721,-2.5719,-2.5718,-2.5809,-2.5812,-2.5816,0,0,0,0,0,0,0,0,0,0,0,0,0,-2.545,-2.5454,-2.563,-2.5631,-2.5632,-2.5721,-2.5723,-2.5724,-2.5722,-2.5721,-2.5719,-2.5718,-2.5808,-2.5812,-2.5816,0,0,0,0,0,0,0,0,0,0,0,0,0,-2.5534,-2.5455,-2.563,-2.5642,-2.5644,-2.5721,-2.5723,-2.5724,-2.5722,-2.5721,-2.5719,-2.5717,-2.5806,-2.5811,-2.5817,-2.5886,0,0,-2.5833,-2.5835,0,0,0,0,0,0,0,0,-2.5529,-2.554,-2.5639,-2.5641,-2.5644,-2.5708,-2.5692,-2.5778,-2.5723,-2.5693,-2.5718,-2.5716,-2.5777,-2.5784,-2.5805,-2.589,-2.5894,-2.5833,-2.5837,-2.5839,-2.584,0,0,0,0,0,0,0,-2.5523,-2.5536,-2.5666,-2.5641,-2.5644,-2.5642,-2.5652,-2.5709,-2.5744,-2.5695,-2.5695,-2.5706,-2.5778,-2.58,-2.5807,-2.5896,-2.5833,-2.5838,-2.5841,-2.5843,-2.6042,-2.6044,0,0,0,0,0,0,-2.5515,-2.5531,-2.5663,-2.5669,-2.5581,-2.5647,-2.5658,-2.569,-2.5743,-2.575,-2.5708,-2.5706,-2.5792,-2.5801,-2.5811,-2.5896,-2.5839,-2.5844,-2.5847,-2.604,-2.6042,-2.6044,0,0,0,0,0,0,-2.5511,-2.5527,-2.5659,-2.56,-2.5617,-2.5652,-2.5687,-2.5692,-2.5715,-2.5753,-2.5759,-2.5725,-2.5791,-2.5803,-2.5868,-2.5899,-2.5846,-2.5851,-2.6037,-2.604,-2.6043,-2.6066,0,0,0,0,0,0,-2.5506,-2.5526,-2.5553,-2.5601,-2.562,-2.5716,-2.5689,-2.5695,-2.5725,-2.5723,-2.577,-2.5776,-2.579,-2.586,-2.5873,-2.5905,-2.5855,-2.6035,-2.6039,-2.6042,-2.6063,-2.607,-2.6076,0,0,0,0,0,-2.55,-2.5555,-2.5555,-2.5571,-2.5656,-2.5718,-2.5729,-2.5745,-2.5727,-2.5755,-2.5779,-2.5775,-2.5893,-2.5866,-2.5881,-2.5916,-2.6033,-2.6038,-2.6042,-2.606,-2.6068,-2.6076,0,0,0,0,0,0,-2.5509,-2.5562,-2.5562,-2.5635,-2.5672,-2.5717,-2.5753,-2.5753,-2.5796,-2.5792,-2.5809,-2.582,-2.5884,-2.5906,-2.5875,-2.5985,-2.5961,-2.5968,-2.5969,-2.5977,-2.5984,-2.5977,-2.586,0,0,0,0,0,-2.552,-2.5567,-2.561,-2.567,-2.5689,-2.5718,-2.5745,-2.5755,-2.5793,-2.5809,-2.5838,-2.5875,-2.592,-2.595,-2.5994,-2.6066,-2.6076,-2.6097,-2.6103,-2.6108,-2.6115,-2.6154,-2.6164,-2.606,-2.606,-2.606,0,0,-2.5543,-2.5577,-2.5606,-2.5673,-2.5703,-2.5751,-2.5731,-2.5782,-2.5817,-2.5816,-2.588,-2.5902,-2.5944,-2.6013,-2.6044,-2.6033,-2.6146,-2.6114,-2.6118,-2.6122,-2.616,-2.617,-2.6179,-2.6063,-2.6062,-2.6062,0,0,-2.5608,-2.5639,-2.5693,-2.5723,-2.5769,-2.5788,-2.5801,-2.5846,-2.5861,-2.5925,-2.5925,-2.5967,-2.6045,-2.6075,-2.6101,-2.6177,-2.6175,-2.6191,-2.6224,-2.6263,-2.6271,-2.6278,-2.6306,-2.6315,-2.6197,-2.6197,-2.6197,0,-2.563,-2.5703,-2.572,-2.5772,-2.5801,-2.5803,-2.5857,-2.5885,-2.5943,-2.5963,-2.5949,-2.6047,-2.6076,-2.6152,-2.617,-2.6191,-2.6205,-2.6186,-2.6269,-2.6276,-2.6283,-2.631,-2.632,-2.6199,-2.6199,-2.6198,-2.6198,0,-2.5727,-2.5778,-2.5815,-2.5872,-2.5906,-2.5958,-2.5982,-2.6013,-2.602,-2.6039,-2.6104,-2.6138,-2.6189,-2.6207,-2.6213,-2.6284,-2.6275,-2.6265,-2.6241,-2.6295,-2.632,-2.633,-2.6201,-2.6201,-2.62,-2.62,0,0,-2.5802,-2.5868,-2.5881,-2.5907,-2.5958,-2.5997,-2.6048,-2.61,-2.6126,-2.6165,-2.6209,-2.6275,-2.6266,-2.6295,-2.6304,-2.6338,-2.6396,-2.6323,-2.6325,-2.6336,-2.6476,-2.6484,-2.6496,-2.6395,-2.6397,-2.6398,-2.6473,0,-2.5873,-2.5968,-2.5984,-2.6066,-2.6112,-2.6115,-2.616,-2.6195,-2.6215,-2.6256,-2.6277,-2.6324,-2.6308,-2.6325,-2.6359,-2.6382,-2.6425,-2.6377,-2.6435,-2.6437,-2.6426,-2.6509,-2.6517,-2.6586,-2.6483,-2.6484,-2.6485,0,-2.5969,-2.6012,-2.6099,-2.6144,-2.6164,-2.6204,-2.6252,-2.6292,-2.6332,-2.6343,-2.6376,-2.6381,-2.6434,-2.6407,-2.648,-2.6447,-2.6472,-2.6486,-2.6489,-2.6496,-2.6465,-2.6518,-2.6608,-2.6619,-2.6501,-2.65,-2.6499,0,-2.6016,-2.6095,-2.6157,-2.6179,-2.6233,-2.6261,-2.6284,-2.6322,-2.6352,-2.6393,-2.6412,-2.6459,-2.6484,-2.652,-2.6537,-2.6515,-2.6609,-2.6583,-2.662,-2.6619,-2.664,-2.6639,-2.6736,-2.6655,-2.6655,-2.6654,-2.6654,0,-2.6094,-2.6147,-2.6179,-2.6218,-2.6277,-2.6294,-2.6352,-2.6374,-2.6408,-2.645,-2.6454,-2.6493,-2.6514,-2.6555,-2.6569,-2.6627,-2.6639,-2.6649,-2.6652,-2.6649,-2.6648,-2.6666,-2.6662,-2.6657,-2.6656,-2.6656,-2.6655,0,-2.6156,-2.618,-2.6248,-2.6293,-2.6306,-2.6347,-2.6385,-2.6422,-2.6441,-2.6494,-2.6507,-2.6537,-2.6586,-2.6607,-2.6667,-2.6676,-2.6744,-2.6743,-2.6731,-2.6732,-2.6768,-2.6764,-2.6881,-2.6897,-2.6805,-2.6805,-2.6806,0,-2.6205,-2.6246,-2.6296,-2.6325,-2.6349,-2.6396,-2.6426,-2.6445,-2.6476,-2.6524,-2.6555,-2.6604,-2.6645,-2.6724,-2.675,-2.6796,-2.6797,-2.6834,-2.6803,-2.6799,-2.6798,-2.6795,-2.68,-2.684,-2.6841,-2.6842,-2.6842,0,-2.6289,-2.6299,-2.6343,-2.6392,-2.6428,-2.6467,-2.6505,-2.6528,-2.6552,-2.6586,-2.6637,-2.6669,-2.6731,-2.678,-2.6828,-2.685,-2.685,-2.6852,-2.6863,-2.686,-2.6852,-2.6858,-2.6747,-2.6849,-2.6848,-2.6848,-2.6847,-2.6847,-2.6347,-2.6384,-2.6425,-2.6474,-2.6504,-2.6539,-2.6576,-2.66,-2.6643,-2.6696,-2.6703,-2.6758,-2.6796,-2.686,-2.6884,-2.6927,-2.6917,-2.6933,-2.6937,-2.6941,-2.6944,-2.6845,-2.6935,-2.6935,-2.6935,-2.6935,-2.6935,0,-2.6432,-2.6458,-2.6503,-2.6556,-2.6595,-2.6592,-2.6633,-2.6665,-2.6714,-2.675,-2.679,-2.6848,-2.6896,-2.6926,-2.6973,-2.7001,-2.7003,-2.7013,-2.7012,-2.7017,-2.6949,-2.6935,-2.7012,-2.7012,-2.7012,-2.7012,-2.7012,-2.7012,-2.6481,-2.6543,-2.6557,-2.6634,-2.6659,-2.6714,-2.6738,-2.677,-2.6799,-2.6864,-2.6904,-2.6924,-2.6957,-2.7007,-2.705,-2.7057,-2.7075,-2.7086,-2.7093,-2.703,-2.7022,-2.7014,-2.7001,-2.709,-2.709,-2.7158,-2.7158,-2.7159]}]]